Notices

What's New in latest Release from April 7th, 2021:

- Updated Glossary, including Speed of Maximum Gust, and Total Hourly Precipitation

- Updated national and regional climate services offices contacts and prices information

- Addition of station inventory lists for 1981-2010, 1971-2000, and 1961-1990 Normals.

If you haven't already, please take our survey and provide feedback about our website: https://eccc.sondage-survey.ca/f/LanguageSelection.aspx?s=442ca660-fcf1-47c0-95a9-59707d6fd709

Hourly Data Report for February 29, 2004

SHERBROOKE A
QUEBEC

45°26'00.000" N
71°41'00.000" W
241.40 m
7028124
71610
YSC

Download Data

Hourly Data (February 2004)
Hourly Data Report for February 29, 2004
TIME
LST
Temp Definition
°C
Dew Point Definition
°C
Rel Hum Definition
%
Precip. Amount Definition
mm

Wind Dir Definition
10's deg

Wind Spd Definition
km/h
Visibility Definition
km
Stn Press Definition
kPa
Hmdx Definition


Wind Chill Definition


Weather Definition


00:00 -11.9 -16.2 70   8 4 15.0 99.17   -14  
01:00 -11.0 -15.4 70   10 4 12.9 99.15   -13  
02:00 -12.9 -17.2 70   7 6 12.9 99.11   -17  
03:00 -12.2 -16.4 71     0 15.0 99.08      
04:00 -13.5 -17.6 71     0 15.0 99.08      
05:00 -14.5 -18.6 71   8 4 15.0 99.07   -17  
06:00 -12.1 -16.0 73   10 6 15.0 99.08   -16  
07:00 -13.1 -17.1 72   9 6 15.0 99.06   -17  
08:00 -9.6 -13.8 71     0 24.1 99.07     Mostly Cloudy
09:00 -3.5 -11.8 53     0 24.1 99.05     Mostly Cloudy
10:00 1.3 -10.4 41   25 9 24.1 99.02     Mostly Cloudy
11:00 3.0 -9.3 40   25 15 24.1 98.95     Mostly Cloudy
12:00 3.7 -9.3 38   23 15 24.1 98.89     Mostly Cloudy
13:00 3.9 -9.4 37   21 13 24.1 98.83     Mostly Cloudy
14:00 4.2 -8.8 38   22 9 24.1 98.78     Mostly Cloudy
15:00 4.9 -8.7 37   22 11 24.1 98.75     Mostly Cloudy
16:00 4.9 -9.0 36   20 7 24.1 98.71     Mostly Cloudy
17:00 4.4 -8.5 39   21 6 24.1 98.67     Mostly Cloudy
18:00 3.5 -9.3 39   21 6 15.0 98.70      
19:00 2.4 -8.4 45   26 7 15.0 98.77      
20:00 3.5 -5.6 51   27 11 15.0 98.82      
21:00 3.1 -5.6 53   27 6 15.0 98.88      
22:00 2.7 -5.5 55   30 4 15.0 98.96      
23:00 2.1 -5.3 58   29 13 11.3 99.01      

Notes on Data Quality.

Legend

  • E = Estimated
  • M = Missing
  • NA = Not Available*
  • [empty] = Indicates an unobserved value
Date modified: